Regional Weather Roundup
Issued by NWS Green Bay, WI

Home | Current Version | Previous Version | Graphics & Text | Print | Product List | Glossary Off
Versions: 1 2 3 4 5 6 7 8 9 10 11 12 13 14 15 16 17 18 19 20 21 22 23 24 25 26 27 28 29 30 31 32 33 34 35 36 37 38 39 40 41 42 43 44 45 46 47 48 49 50

000
ASUS43 KGRB 290410
RWRGRB

NORTH-CENTRAL AND NORTHEAST WISCONSIN REGIONAL WEATHER ROUNDUP
NATIONAL WEATHER SERVICE GREEN BAY WI
1100 PM CDT THU AUG 28 2014

WIZ005-009-010>012-018-019-290500-
NORTH CENTRAL WISCONSIN

CITY           SKY/WX    TMP DP  RH WIND       PRES   REMARKS
IRONWOOD       NOT AVBL
MANITOWISH WTR CLOUDY    63  60  90 S7        30.03S
ARBOR VITAE    CLOUDY    64  59  85 S8        30.03F
EAGLE RIVER    CLOUDY    62  57  82 S6        30.04F
LAND O LAKES   CLOUDY    63  59  87 S5        30.05F
RHINELANDER    CLOUDY    61  58  90 S9        30.06S
PHILLIPS       CLOUDY    63  61  92 SE5       30.02S
ANTIGO         LGT RAIN  59  58  95 SE6       30.06F
TOMAHAWK       CLOUDY    61  58  91 SE5       30.05S
MERRILL        RAIN      62  60  94 S5        30.04S
$$

WIZ013-073-290500-
NORTHEAST WISCONSIN

CITY           SKY/WX    TMP DP  RH WIND       PRES   REMARKS
IRON MOUNTAIN  CLOUDY    60  56  86 SE6       30.05F
MARINETTE      CLOUDY    63  55  77 SE5       30.06S
OCONTO         CLOUDY    61  58  92 E3        30.06S
$$

WIZ017-030-035>037-045-290500-
CENTRAL WISCONSIN

CITY           SKY/WX    TMP DP  RH WIND       PRES   REMARKS
MEDFORD        DRIZZLE   60  59  96 SE8       30.03S
WAUSAU         CLOUDY    61  57  87 SE7       30.02F
MOSINEE        CLOUDY    59  57  94 SE6       30.04F
MARSHFIELD     RAIN      60  58  92 S10       30.03S FOG
WISC RAPIDS    LGT RAIN  60  57  89 E6        30.04S
STEVENS POINT  LGT RAIN  60  53  79 SE8       30.04F
WAUPACA        CLOUDY    64  61  90 CALM      30.05R
SHAWANO        CLOUDY    63  58  85 SE3       30.06S
CLINTONVILLE   CLOUDY    61  57  88 CALM      30.04F
$$

WIZ038-039-048-051-290500-
FOX VALLEY

CITY           SKY/WX    TMP DP  RH WIND       PRES   REMARKS
NWS GREEN BAY  CLOUDY    63  57  81 SE5       30.05F
APPLETON       CLOUDY    64  54  68 SE10      30.05F
OSHKOSH        CLOUDY    65  54  67 SE7       30.03F
FOND DU LAC    CLOUDY    63  55  75 SE8       30.04F
$$

WIZ022-050-052-290500-
EAST CENTRAL WISCONSIN

CITY           SKY/WX    TMP DP  RH WIND       PRES   REMARKS
STURGEON BAY   CLOUDY    61  55  82 SE6       30.08S
MANITOWOC      CLOUDY    64  59  83 E8        30.06F
SHEBOYGAN      CLOUDY    63  57  81 E5        30.06F
$$

LMZ563-521-522-541>543-290500-
LAKESHORE

STATION/POSITION TIME  TEMP    WIND        PRES    VSBY  WAVE
                       AIR SEA DIR/SP/G                  HT/PER
                 (UTC) (F)     (DEG/KT/KT) (MB)    (MI)  (FT/S)
SHEBOYGAN LKSHOR 0400   66 69   90/ 13/ 13 1017.9F
KEWAUNEE LKSHORE 0400   64     130/  7/  9 1017.2F
ALGOMA MARINA    0300          160/ 11/ 12   N/A
NORTHPORT PIER   0400   65     130/ 11/ 12 1018.3F
N MID LAKE BUOY  0400   65 66  120/ 10/ 12 1018.6F         0
S GREEN BAY BUOY 0400   65     VRB  8/ 12  1018.8F
SISTER BAY LKSHO 0300   62     110/  7/ 10   N/A
CHAMBERS ISLAND  0400   63     110/  3/  7 1018.3S
MENOMINEE LKSHOR 0400   65     130/  8/  9 1018.8R
$$



USA.gov is the U.S. government's official web portal to all federal, state and local government web resources and services.